Погода в Фанагорийском

Россия / Краснодарский край     44°30′48″N   39°06′37″E
темп.,
°C
ветер,
м/с
пор.,
м/с
влажн.,
%
обл.,
%
осадки,
мм/ч
давл.,
гПа
погр.,
м
25 февраля, чт
чт2500:00−10св239219 0.0 1034135
03:00−10ссв229018 0.0 103383
06:00−8св128079 0.0 1033100
09:00−3ссв117872 0.0 103492
12:00+2юв018081 0.1 1033191
15:00+4юз388289 0.1 1032876
18:00+2юз3119379 0.1 1032464
21:00+2ююз3139288 0.1 1032537
26 февраля, пт
пт2600:00+2юз3119488 0.1 1032550
03:00+2юз3109480 0.1 1032395
06:00+2ююз3993100 0.1 1031395
09:00+3юз499499 0.1 1030574
12:00+5ююз5108594 0.0 1029613
15:00+5юз598684 0.1 1028676
18:00+2юз4119241 0.0 1027438
21:00+2юз4118866 0.0 1027487
27 февраля, сб
сб2700:00+3ююз5128493 0.0 1025538
03:00+2ююз5138870 0.0 1024519
06:00+3ююз5138669 0.0 1022560
09:00+3ююз6138379 0.0 1021638
12:00+5ююз8147675 0.0 1020698
15:00+6ююз8147358 0.0 1018695
18:00+3ююз6157886 0.0 1016659
21:00+3юз7148393 0.1 1015849
28 февраля, вс
вс2800:00+2ююз51396100 3.4 1015701
03:00+2ююз41297100 6.8 1014727
06:00+1зюз1398100 4.8 1015212
09:00+1ссз1398100 8.8 1016246
12:00+4зюз138397 1.7 1017537
15:00+5сз357496 2.6 10181057
18:00+2сз248778 0.4 1019232
21:000зсз119479 0.4 102141
1 марта, пн
пн100:000з119595 0.0 102322
03:00−1зюз119462 0.0 102321
06:00−2з009322 0.0 102421
09:000с228929 0.0 1025366
12:00+2с127797 0.1 1026650
15:00+1ссв337499 0.1 1026795
18:000ссв358396 0.0 1027527
21:00−1св378594 0.1 1029504